Theta_e
304 304 303 302 301 299 298 298 299 299 300 302 302 303 303 303 305 302 301 298 297 302 303 301 302 303 302 302 302 301 301 302 302 302 302 302 302 302 301 302 302 301 301 302 301 299 298 297 294 293 293 293 293 292 291 289 288 288 289 289 289 288 288 288 290 290 290 290 290 291 291 291 292 294 294 295 297 298 299 300 303 305 306 306 311 313
306 304 301 299 299 297 296 297 298 299 300 301 303 303 304 304 304 302 300 299 298 302 304 301 302 303 302 302 301 301 301 302 301 301 302 301 301 302 301 302 301 301 302 302 301 300 299 298 296 294 293 293 293 293 292 290 289 288 288 289 289 288 288 288 288 289 289 289 289 289 289 290 291 292 292 293 295 297 299 300 301 303 304 306 310 310
308 303 300 297 297 297 297 297 298 300 300 302 303 304 305 304 303 302 300 298 299 302 304 302 302 303 302 301 301 301 300 301 300 300 300 301 301 301 301 301 301 301 301 301 301 300 300 299 297 295 294 293 293 293 293 292 290 288 288 288 288 288 288 288 288 288 288 288 288 289 288 289 290 290 290 291 292 295 297 298 300 301 303 305 307 308
308 304 299 296 296 298 299 298 298 300 302 303 303 304 305 302 302 305 302 298 299 301 302 300 301 303 302 301 301 300 300 300 300 300 300 300 300 300 300 299 299 299 300 300 300 300 299 298 298 297 295 293 293 293 293 292 291 289 288 288 288 288 288 288 288 288 288 288 288 288 288 288 289 289 290 290 291 292 294 295 297 298 300 301 303 305
305 301 297 296 297 298 299 299 299 302 303 302 301 303 303 300 300 302 301 299 300 300 299 300 304 305 303 302 302 301 300 300 300 300 300 300 299 299 299 300 299 299 299 299 299 300 299 298 298 297 295 294 293 293 293 293 292 290 289 288 288 288 288 288 288 288 288 288 288 288 289 289 288 289 289 289 289 290 290 292 293 295 296 297 298 299
303 299 296 298 300 299 300 300 298 301 305 303 300 299 299 299 298 299 300 302 305 307 300 299 308 309 304 302 303 302 300 301 301 300 300 300 300 300 300 300 300 299 300 299 299 299 299 298 298 297 296 295 293 293 294 293 293 292 290 288 288 288 288 288 288 288 288 288 288 288 288 288 289 289 288 287 288 288 288 289 290 291 292 293 295 295
301 299 298 300 301 301 302 301 297 297 304 306 300 297 297 298 298 300 301 304 309 309 301 298 307 310 306 304 303 302 301 302 301 300 300 300 301 301 300 300 299 299 299 299 299 300 299 298 298 297 297 295 294 293 294 294 293 293 291 290 288 288 288 288 288 288 288 288 287 287 287 288 288 288 287 287 287 288 288 289 289 289 290 290 291 292
301 301 301 300 301 303 303 302 298 296 303 306 298 296 298 298 299 300 302 306 306 305 303 300 303 307 308 306 303 301 302 303 302 300 300 301 301 301 301 300 299 299 298 298 299 299 299 298 297 297 296 295 295 294 294 295 294 294 293 291 290 288 288 288 288 288 288 288 287 287 287 288 288 287 287 287 288 288 288 289 289 289 289 289 290 290
299 302 301 300 303 304 302 301 298 297 302 302 297 297 298 297 300 300 302 305 302 303 308 305 301 307 310 307 302 301 303 304 304 301 301 301 301 301 301 300 299 299 299 298 298 298 298 297 297 296 296 296 295 295 294 295 295 294 294 293 291 289 289 288 288 288 288 288 287 287 287 288 288 287 287 287 288 288 288 288 289 289 289 289 289 290
298 299 298 299 302 302 300 299 297 297 300 299 297 298 298 297 299 299 302 305 302 305 310 305 300 307 311 308 305 304 304 305 305 302 301 300 301 301 300 300 299 299 299 299 299 298 298 297 296 295 295 296 296 296 295 295 295 295 295 294 293 291 289 289 289 288 288 288 288 287 287 287 287 287 287 288 288 288 288 288 288 289 289 289 289 289
297 297 297 299 300 299 298 297 295 296 298 298 298 300 301 301 299 299 301 302 305 309 308 301 300 304 309 309 307 306 305 304 304 302 301 301 301 301 301 300 299 298 298 299 299 299 298 297 296 296 296 296 296 297 296 295 295 295 295 295 294 293 291 290 289 289 288 288 287 287 287 287 287 286 287 288 288 287 288 288 288 288 288 288 289 289
299 300 300 299 298 297 297 298 297 295 296 298 299 301 305 305 303 304 304 303 308 311 305 299 299 301 307 308 307 305 303 302 302 301 301 301 301 301 300 300 299 298 298 298 299 299 299 298 297 297 297 296 296 297 297 297 296 296 295 295 295 294 292 291 290 289 289 289 288 288 287 287 287 287 287 287 287 287 287 287 287 288 288 288 288 288
303 302 300 299 298 297 299 303 302 299 299 301 301 303 309 310 308 309 309 307 308 308 301 298 300 302 306 307 305 304 303 301 301 300 300 300 300 300 300 299 299 298 298 298 299 299 299 299 298 297 297 296 296 296 296 297 297 296 296 296 295 295 293 292 291 290 289 289 289 288 288 287 287 287 287 287 287 287 287 287 287 287 288 288 288 288
307 304 301 302 301 298 299 303 305 304 302 303 302 303 309 310 310 312 309 307 309 307 300 297 299 304 307 306 304 303 302 301 299 298 299 299 299 299 298 298 298 298 298 298 299 299 299 299 298 297 296 295 295 296 296 296 297 296 296 296 296 296 294 293 293 291 290 289 289 289 288 288 287 287 287 287 287 287 287 287 286 287 287 287 287 287
310 311 304 302 301 299 298 298 299 300 301 301 298 301 307 307 308 312 310 308 309 307 302 299 300 306 308 306 303 301 300 298 298 297 297 297 297 297 297 297 297 298 299 299 299 300 299 298 298 296 296 295 295 295 296 296 296 296 296 296 296 296 295 294 294 293 292 290 289 289 288 288 288 288 287 287 287 287 287 287 287 287 287 287 287 287
308 310 303 299 298 297 298 296 295 297 301 301 298 302 306 303 303 306 304 304 303 303 304 303 303 305 305 303 300 299 299 298 298 298 297 298 298 297 298 298 299 299 299 300 300 300 300 298 297 297 296 295 295 295 295 296 296 296 296 296 296 296 295 295 294 294 293 292 291 290 289 288 288 288 288 287 287 287 287 287 287 287 286 286 286 286
308 309 301 298 297 295 296 296 294 297 302 303 302 304 301 296 299 303 301 297 298 304 306 304 305 306 305 304 301 299 300 300 300 299 298 299 299 298 299 300 301 300 300 300 299 299 299 298 297 296 296 296 296 296 296 296 296 296 296 297 297 296 296 295 295 295 294 293 292 291 290 289 289 288 288 288 288 287 287 287 287 287 287 287 287 286
304 308 302 298 299 297 293 294 295 295 298 303 305 302 297 296 298 302 305 303 304 309 308 304 305 306 307 307 304 301 303 303 302 301 299 300 300 300 301 302 301 300 300 299 299 300 299 298 298 297 296 297 296 296 296 296 296 296 296 297 297 297 296 296 295 295 295 294 293 293 292 291 290 289 288 288 288 288 288 287 287 287 287 287 287 287
299 308 305 297 299 298 293 296 301 298 296 300 302 298 298 303 304 303 306 307 308 311 309 306 305 305 306 307 306 304 304 304 303 302 301 301 301 301 301 301 301 300 300 299 299 300 299 299 298 297 297 297 297 297 296 296 296 296 296 296 297 297 297 296 296 296 295 295 294 294 293 292 291 290 289 289 288 288 288 288 288 287 287 287 287 287
297 307 309 299 296 298 298 301 304 303 299 298 299 298 298 302 304 303 303 304 307 309 309 309 309 308 307 305 305 306 304 304 304 303 303 302 301 301 301 300 300 299 299 299 299 299 299 298 297 296 297 297 297 297 297 296 296 296 296 296 296 297 297 297 296 296 296 295 295 294 294 293 293 292 291 290 289 288 288 288 288 287 287 287 287 286
297 304 309 303 298 300 303 302 301 302 300 300 302 302 301 300 299 300 300 298 303 307 306 306 310 312 307 303 304 305 304 304 304 303 303 302 301 301 300 300 299 299 299 298 298 299 298 297 297 296 297 298 298 298 298 297 297 296 297 296 296 296 297 297 296 296 296 296 296 295 295 294 294 293 292 291 290 289 289 289 288 288 288 287 287 286
298 301 305 306 305 305 303 297 295 297 297 299 302 302 303 302 301 305 305 298 297 302 302 302 308 311 306 301 301 303 301 301 301 300 301 301 300 300 299 299 298 298 298 298 298 298 297 297 296 296 296 297 298 298 298 298 297 297 297 297 297 297 297 297 297 296 296 296 296 296 296 295 294 294 293 293 292 291 291 290 289 289 288 287 287 287
297 299 303 307 306 303 298 292 291 293 293 295 297 298 300 300 302 308 309 302 298 297 297 298 303 308 304 298 298 299 298 298 297 297 298 299 299 298 298 298 298 298 298 297 298 297 297 296 295 295 295 297 298 298 298 298 298 298 297 297 297 297 297 297 297 297 296 296 296 296 296 296 295 295 294 294 293 293 293 292 291 290 289 288 288 287
297 299 303 308 305 299 295 292 290 290 292 296 297 295 297 299 300 302 302 301 300 298 298 300 303 308 304 298 297 297 297 297 297 296 297 298 298 298 298 298 298 298 298 298 298 297 297 296 295 295 295 296 297 297 298 298 298 298 298 298 297 297 297 298 297 297 297 296 296 296 296 296 296 296 295 295 294 294 294 293 293 292 291 290 289 289
299 301 303 307 309 306 303 300 298 296 295 298 298 296 296 297 296 298 297 298 301 301 301 303 307 309 304 299 298 299 298 299 299 299 298 298 298 299 299 298 298 298 298 297 297 298 298 297 296 296 296 295 296 297 297 298 298 298 298 298 298 298 298 298 297 297 297 297 297 296 296 296 296 296 296 296 295 295 295 294 293 293 293 292 291 290
298 300 302 306 310 311 311 309 307 304 300 299 298 295 295 296 297 300 299 300 303 301 298 302 308 308 305 302 302 302 301 301 301 301 300 299 299 299 298 298 298 298 298 297 297 297 297 297 297 296 296 296 296 296 297 298 298 298 298 298 298 298 298 298 298 297 297 297 297 297 297 296 296 296 296 296 296 296 295 295 294 294 293 293 292 292
296 297 299 304 307 308 309 308 304 303 302 302 300 296 296 296 297 299 301 302 303 300 299 303 305 306 305 304 304 303 302 302 301 301 301 300 300 300 299 299 298 297 297 297 296 297 296 297 297 296 296 296 296 297 297 298 298 298 299 299 299 298 298 298 298 298 298 297 297 297 297 297 297 297 296 296 296 296 295 295 295 294 294 293 293 293
297 298 298 301 304 304 304 303 300 299 301 302 301 299 298 296 296 298 301 302 301 301 304 304 301 302 303 303 303 303 303 303 302 301 301 300 299 299 298 297 297 297 297 297 297 297 297 297 297 297 297 297 297 298 298 299 299 299 299 299 299 299 298 298 298 298 298 298 297 297 297 297 297 297 297 296 296 296 296 295 295 295 294 294 293 293
297 299 297 296 299 300 299 299 298 297 298 299 299 299 298 297 297 298 300 301 300 302 306 304 300 301 303 302 303 303 302 302 301 300 300 299 298 297 297 297 297 297 298 298 298 298 298 298 298 298 297 297 297 298 299 299 299 299 299 299 299 299 299 298 298 298 298 298 298 298 298 298 297 297 297 297 296 296 296 295 295 295 295 294 294 294
296 299 297 295 297 299 297 297 297 296 297 298 298 298 299 298 297 298 300 300 299 301 303 302 301 301 301 301 301 301 301 300 299 299 298 298 298 298 297 297 297 298 298 298 298 298 299 299 298 298 297 296 297 299 299 299 299 299 299 299 299 299 299 298 298 297 297 297 298 298 298 298 297 297 297 297 297 297 296 296 295 295 295 295 294 294
294 298 297 295 298 302 299 296 296 296 297 298 298 298 298 298 298 297 298 298 298 299 299 299 299 299 299 300 300 300 300 299 299 299 299 299 299 298 298 298 298 298 299 299 299 299 299 299 298 298 297 297 298 299 299 299 299 299 298 298 299 299 299 298 297 297 297 297 297 297 297 298 298 297 297 297 296 297 296 296 296 295 295 295 295 295
294 296 296 295 301 304 300 297 297 297 297 299 302 301 298 297 298 297 297 297 298 299 299 298 299 300 301 302 301 300 300 299 299 300 300 300 300 299 299 299 299 299 299 299 299 299 300 300 299 299 298 298 299 299 299 299 299 298 298 298 299 298 298 297 297 297 296 296 297 297 297 297 297 297 297 297 297 296 296 296 296 295 295 295 295 295
294 296 297 296 301 304 301 299 298 299 305 309 308 304 300 298 297 297 297 297 297 298 300 300 301 303 304 304 302 301 301 301 301 301 301 301 301 300 300 299 299 299 299 299 299 299 300 300 299 299 299 299 299 299 299 299 298 298 298 298 298 297 297 297 297 296 296 297 297 296 296 296 296 297 297 297 297 297 296 296 296 296 296 295 295 295
293 296 296 295 299 303 303 301 301 305 312 312 304 300 300 300 300 300 300 299 297 298 300 301 302 303 303 302 302 302 302 303 303 301 300 300 299 299 299 299 299 299 299 299 299 299 300 299 299 299 299 299 299 300 299 299 298 298 298 298 297 296 296 296 296 296 296 297 297 297 297 296 296 296 296 297 297 297 296 296 295 295 296 295 295 295
294 295 294 293 296 299 300 302 309 314 313 307 300 297 297 298 299 299 300 300 298 297 298 299 300 301 301 302 302 302 302 302 301 299 298 298 298 298 298 298 299 299 300 300 300 300 300 299 299 299 299 299 299 299 298 298 298 298 297 297 296 296 295 295 295 296 296 296 297 297 297 297 296 296 296 296 297 297 296 296 295 296 296 295 295 295
296 295 294 294 295 298 299 302 311 314 308 303 299 296 295 296 297 298 302 303 301 298 298 298 299 300 301 302 301 301 301 300 298 297 297 297 298 298 298 299 300 301 302 301 301 301 301 300 299 299 298 298 298 297 297 297 298 297 296 296 296 295 295 295 294 295 295 296 297 297 297 297 297 296 296 296 296 296 296 296 296 296 296 295 295 295
294 295 296 296 296 297 299 301 304 306 306 305 303 298 297 298 299 300 303 305 303 300 299 299 300 300 301 301 301 300 299 298 299 299 300 301 303 302 299 299 300 302 302 301 301 301 300 300 299 299 298 298 297 297 297 297 297 296 295 295 295 295 295 294 294 295 295 296 297 298 297 297 296 296 296 295 294 294 295 295 296 296 296 295 294 294
292 294 295 299 298 296 298 301 303 306 310 308 303 299 297 298 298 299 301 303 305 304 301 300 301 302 303 304 302 300 298 300 302 303 303 304 306 304 302 300 299 299 299 299 299 299 299 299 299 298 297 296 296 297 297 297 297 295 295 295 295 295 295 294 294 295 296 296 298 297 297 296 295 295 295 294 294 294 295 295 295 295 295 294 293 294
292 291 292 297 298 296 298 301 303 308 312 307 302 299 297 296 296 298 302 306 308 307 303 301 303 304 304 306 304 300 299 301 303 303 303 304 303 302 302 300 298 298 298 298 298 298 298 298 297 297 296 295 296 297 297 296 296 295 294 295 295 295 294 294 295 296 297 297 297 297 296 295 294 294 294 294 294 294 295 295 294 294 294 293 293 293
293 292 292 295 298 296 297 300 301 305 307 303 300 298 296 295 296 300 307 310 309 308 304 301 303 305 305 305 303 300 301 302 303 303 303 302 301 300 300 299 298 298 298 298 298 297 297 297 296 296 296 295 296 296 296 296 295 295 295 295 295 294 294 295 296 296 296 297 296 296 296 294 294 294 293 294 294 294 294 294 293 293 292 292 292 292
291 291 291 294 296 295 297 300 300 301 303 301 299 298 296 296 299 304 310 311 309 311 307 303 304 306 305 304 302 301 301 302 302 302 302 301 300 299 299 298 298 298 297 297 297 297 296 296 296 296 296 296 296 296 296 295 295 294 295 295 294 294 295 296 296 296 296 296 296 295 295 294 294 294 293 294 294 293 294 293 292 292 292 291 291 291
294 293 291 291 294 294 295 296 298 302 303 300 298 297 296 299 304 307 309 310 310 310 307 305 304 303 302 302 302 301 301 301 301 301 300 299 299 299 299 298 298 298 297 297 297 297 296 296 296 296 296 296 296 296 296 295 294 294 294 294 294 295 296 296 296 295 295 295 295 295 294 294 294 294 294 294 294 293 293 293 292 292 291 291 290 290
299 300 297 293 293 295 293 294 303 310 305 298 297 298 296 301 309 309 307 307 307 306 304 304 303 302 301 301 301 300 300 300 299 299 298 298 298 298 298 298 298 298 298 297 297 297 296 296 296 296 296 296 296 296 296 295 294 294 294 294 295 296 296 296 295 295 295 295 294 294 294 294 294 294 294 294 294 293 292 292 292 291 291 290 290 289
300 302 302 297 296 299 300 303 310 312 303 297 302 305 300 301 307 308 306 305 304 303 303 302 302 302 301 301 300 300 299 299 299 298 298 298 298 298 298 298 298 298 297 297 297 297 296 296 295 296 296 296 296 296 296 295 294 294 294 294 296 296 295 295 295 295 294 294 294 294 294 294 294 294 294 293 293 292 292 292 292 291 291 290 289 289
301 301 303 302 299 300 304 306 306 305 300 298 302 307 305 303 304 304 303 302 302 301 301 300 300 301 301 300 300 299 299 299 298 298 298 298 298 298 298 298 297 297 297 297 297 297 296 296 295 295 296 296 296 296 296 295 295 294 294 295 296 296 295 295 295 294 294 294 294 293 294 293 293 293 293 293 292 292 292 292 291 291 290 290 289 288
300 299 300 301 300 300 302 303 301 300 301 299 299 302 303 303 302 302 302 301 301 300 300 300 300 300 300 300 299 299 298 299 298 298 298 297 297 297 297 297 297 297 297 297 297 297 296 296 295 295 295 296 296 296 296 295 295 294 295 296 296 295 295 294 294 294 294 294 294 294 293 293 293 293 292 292 292 292 292 292 291 290 290 289 289 288
299 298 298 300 301 301 303 304 303 302 303 302 300 300 300 300 300 300 300 300 300 300 300 300 300 299 299 299 298 298 298 298 298 298 298 297 297 297 297 297 297 297 297 297 297 297 296 296 295 295 295 295 296 296 296 296 296 295 295 296 295 295 294 294 294 294 293 294 294 294 293 292 292 292 292 292 292 291 291 291 290 290 289 289 289 288
300 298 299 300 300 301 302 303 303 303 302 301 300 301 301 300 300 300 299 299 299 299 299 299 299 299 298 298 298 298 298 297 297 297 297 297 297 298 298 297 297 297 297 297 297 296 296 295 295 295 295 295 296 296 296 296 297 297 297 296 296 295 294 294 294 293 293 294 293 293 293 293 292 292 291 291 292 291 291 291 290 290 290 290 290 289
301 299 299 300 300 300 302 302 301 301 302 301 300 300 300 300 300 300 300 300 299 299 298 298 297 297 297 297 297 297 297 297 297 297 297 297 297 298 297 297 297 297 297 297 296 296 296 295 295 295 295 295 296 296 296 296 297 298 297 297 296 295 294 294 294 293 293 293 293 293 293 292 292 292 291 291 291 291 291 291 291 290 291 292 292 291
300 300 300 299 300 302 303 303 304 304 305 305 304 303 302 301 301 301 301 300 300 299 299 298 298 298 297 297 297 297 296 297 297 297 297 297 297 297 297 297 297 297 296 296 296 296 295 295 295 294 295 295 295 295 295 296 297 297 297 297 296 295 294 294 293 293 293 293 293 293 293 292 292 292 291 291 291 291 291 291 292 291 291 292 292 291
300 301 300 300 302 304 304 305 305 305 305 306 305 304 304 303 302 301 301 300 300 300 300 299 299 299 299 298 297 297 297 297 297 296 296 296 297 297 296 296 296 296 296 296 296 295 295 295 295 295 295 295 295 295 295 295 296 297 297 296 296 295 294 294 293 292 293 293 292 292 292 292 292 292 291 291 290 290 290 291 291 292 291 292 291 291
Wind_Speed
2 6 7 5 6 7 6 5 5 4 2 3 2 0 1 2 1 1 1 2 5 4 2 4 5 4 4 4 4 5 5 3 3 4 3 3 4 4 5 7 7 7 8 10 12 12 12 12 11 10 11 14 14 15 16 17 18 19 20 21 22 23 24 25 24 22 22 22 24 26 28 28 28 29 30 30 31 32 30 31 30 27 24 23 22 20
2 8 7 4 3 4 4 2 2 2 2 2 1 0 1 1 1 1 1 3 5 3 1 5 6 4 2 3 3 5 4 3 4 5 4 5 5 4 5 7 8 7 8 9 11 11 11 13 12 10 10 13 14 15 16 17 17 18 18 19 20 21 22 23 23 22 21 20 19 20 22 23 25 26 28 29 30 31 30 31 30 28 27 25 23 21
6 9 5 3 1 0 3 2 0 2 2 2 2 1 0 2 3 3 1 3 5 2 2 6 5 4 2 3 3 3 3 3 3 4 5 5 6 5 5 7 8 8 8 9 11 12 12 13 12 11 10 11 13 14 16 16 17 17 17 18 19 19 20 21 21 21 20 19 18 17 18 19 21 23 24 26 26 27 28 29 29 28 28 27 26 23
7 6 5 2 2 2 3 4 1 2 2 3 3 1 0 2 3 1 2 4 6 2 4 6 4 4 3 3 4 2 3 4 3 4 5 5 5 6 6 6 6 7 8 8 10 11 12 13 12 11 10 9 10 13 14 15 16 16 16 16 17 17 18 18 19 19 19 18 18 18 18 18 20 20 22 24 25 26 26 26 27 27 27 26 26 25
7 4 3 0 3 2 1 5 4 0 1 2 2 2 1 2 4 3 2 6 4 2 3 5 4 4 4 4 4 3 3 4 3 4 4 4 4 5 6 5 4 5 6 7 9 10 11 12 12 11 10 9 9 11 13 14 15 15 15 15 15 16 16 17 17 18 18 18 19 19 20 21 22 23 24 25 26 26 26 26 25 24 24 25 25 25
7 3 1 1 1 1 1 4 5 3 1 2 1 1 2 3 4 5 5 5 3 3 2 4 3 2 4 5 5 2 3 4 1 2 3 2 3 4 4 4 4 5 5 6 7 8 10 11 12 11 10 9 9 9 10 12 13 13 13 13 14 14 15 15 16 16 17 17 19 20 21 21 20 20 22 23 23 24 25 25 24 23 23 23 23 22
3 1 1 2 2 1 1 2 2 3 3 0 1 1 2 4 4 3 3 3 2 1 2 3 4 2 3 6 5 3 4 5 2 3 3 3 4 4 5 5 6 6 6 7 7 8 9 9 11 11 10 10 9 7 8 9 11 11 11 11 12 13 13 13 14 15 16 16 17 18 18 18 17 15 17 18 19 21 22 22 23 23 23 23 23 22
2 2 4 4 1 2 2 2 2 3 4 1 2 2 4 3 3 1 1 1 2 3 2 1 2 3 2 3 4 1 5 6 4 3 2 2 4 5 6 6 7 7 6 6 7 8 9 9 10 10 11 10 8 7 6 7 8 9 10 10 10 11 11 12 13 13 14 14 14 15 15 15 15 15 15 16 17 18 19 20 22 22 23 23 23 23
2 4 6 5 3 4 3 3 3 3 3 2 2 2 2 0 1 0 1 0 1 2 2 2 3 4 2 2 3 1 4 5 4 2 2 2 4 6 7 7 8 8 6 6 6 8 9 9 9 10 10 10 8 7 6 6 7 7 8 9 8 8 9 10 10 11 12 12 12 13 13 11 12 12 13 14 14 15 16 18 19 19 20 20 21 21
1 3 3 4 5 5 4 4 3 2 2 2 2 1 2 2 1 0 2 0 0 3 1 3 5 4 2 1 3 2 3 4 4 3 3 2 4 5 6 7 7 7 7 7 8 8 8 9 10 10 10 10 8 7 6 6 6 6 7 8 8 7 7 7 8 9 9 10 10 10 10 10 9 10 10 11 12 12 13 14 15 16 17 17 18 18
1 0 2 1 3 4 5 3 1 1 1 1 2 2 2 2 1 1 1 1 2 2 2 3 5 4 3 1 2 1 0 2 4 4 4 4 4 5 5 6 7 7 7 8 10 10 10 9 9 10 10 9 8 6 6 6 6 6 6 7 7 7 6 6 6 7 7 8 8 7 8 8 8 8 8 7 8 10 10 11 12 12 13 14 14 15
2 1 1 0 1 3 4 2 2 2 2 2 2 2 2 2 2 2 1 1 3 1 3 2 3 2 3 0 2 1 1 2 4 5 5 5 5 5 5 6 7 7 7 7 8 10 11 11 10 10 10 9 8 7 6 6 6 7 7 7 7 6 6 6 5 5 5 6 6 6 6 6 6 7 7 6 6 7 8 8 9 9 10 10 11 11
2 1 2 1 2 2 4 2 2 3 3 2 1 2 2 1 0 1 0 1 3 2 3 2 3 2 5 2 1 2 3 4 5 5 6 6 7 7 6 7 7 7 7 6 7 8 10 10 10 10 11 10 9 7 6 5 5 6 7 8 8 7 6 7 6 4 3 3 4 4 5 4 4 5 5 6 5 5 5 5 6 6 6 7 8 8
1 2 2 1 1 3 6 3 1 1 3 5 3 3 3 2 3 3 2 2 3 1 3 2 2 3 4 2 2 2 1 1 3 5 6 7 8 9 8 8 8 8 7 6 5 7 8 9 10 11 12 12 10 8 6 5 5 5 6 6 8 7 7 8 8 6 5 3 2 2 2 3 3 3 3 4 4 5 4 4 4 3 3 4 5 6
2 1 3 4 2 5 6 4 3 3 4 3 1 3 3 3 3 3 2 3 4 4 1 1 1 3 2 2 1 1 2 2 4 4 4 6 7 7 8 8 8 8 7 5 5 7 8 9 10 12 13 13 12 10 7 6 5 5 5 6 6 7 7 8 9 8 7 6 5 4 2 2 2 2 2 2 2 3 3 3 3 2 2 2 2 3
1 0 3 3 2 4 4 2 2 3 2 0 1 2 2 3 2 2 1 2 2 4 3 1 2 3 1 1 1 2 3 4 4 4 4 7 6 4 6 8 7 7 6 5 5 7 9 10 10 12 15 16 14 12 9 8 6 6 6 6 6 6 6 7 9 9 9 9 8 7 5 4 4 3 3 3 2 2 2 2 2 2 2 1 1 1
2 0 2 1 1 1 3 2 2 2 2 1 1 2 3 2 2 0 1 1 1 2 2 1 3 3 2 0 1 1 3 4 4 4 5 7 6 5 7 7 6 5 6 6 6 7 9 11 11 14 17 18 16 14 12 10 9 7 6 6 5 5 5 6 7 8 10 11 10 9 8 8 7 6 5 5 4 4 4 4 3 3 3 2 3 3
2 1 2 0 1 1 1 2 1 2 3 2 2 3 2 0 0 0 1 1 1 3 2 1 4 5 3 1 1 1 2 3 3 4 5 6 6 6 6 6 6 6 7 7 8 9 9 10 12 16 19 20 18 16 15 13 11 10 8 7 6 6 5 5 6 7 8 10 12 12 11 10 9 9 8 8 7 7 6 6 6 6 5 4 4 4
2 2 2 1 1 2 1 2 1 2 3 4 4 3 1 1 0 0 1 2 2 4 4 2 3 4 3 2 1 2 3 1 1 2 3 4 5 5 6 6 6 7 7 7 8 9 10 11 13 17 20 21 20 18 17 15 13 12 10 10 9 7 6 6 6 6 7 9 11 12 13 13 12 12 11 11 10 10 9 9 9 9 8 8 7 7
1 2 1 2 1 2 0 1 1 2 4 3 2 2 1 1 2 2 1 1 2 3 4 4 3 2 3 2 1 3 4 3 2 2 3 4 5 5 5 5 6 7 7 7 7 8 11 13 15 19 21 20 20 20 19 17 15 14 13 12 12 10 9 8 7 7 7 7 9 10 12 14 14 14 14 13 13 13 13 12 11 11 11 10 10 10
1 1 2 0 2 1 0 2 2 2 1 0 0 1 1 1 0 1 0 0 2 3 2 3 5 4 0 2 3 3 3 2 1 2 4 4 5 5 5 5 6 7 8 8 8 9 11 13 17 21 21 19 20 20 19 18 16 15 15 14 13 13 13 12 10 9 8 8 8 9 10 12 13 15 16 16 16 16 16 15 15 14 14 13 13 13
1 1 2 2 1 1 2 3 2 2 1 2 1 1 1 1 1 1 1 1 1 2 1 1 6 7 2 1 3 1 1 1 2 3 4 6 7 7 6 7 6 7 8 8 9 10 12 12 15 20 22 20 19 19 19 19 17 17 16 16 15 14 15 14 13 12 11 11 10 10 10 10 11 13 16 17 18 19 19 19 18 17 17 17 16 16
1 0 2 4 2 2 4 3 1 1 1 1 1 1 0 0 1 2 2 0 1 1 0 1 4 5 1 1 3 3 3 4 3 3 6 7 8 8 8 9 8 8 9 9 10 11 12 12 14 19 22 22 20 19 19 19 19 18 18 17 17 16 16 16 15 14 14 14 14 13 12 12 12 12 14 16 18 20 20 21 20 20 19 20 19 19
1 0 2 4 1 4 4 3 1 1 1 2 2 2 2 1 1 1 2 1 1 2 2 1 4 5 0 2 2 3 3 5 4 4 6 7 8 9 10 10 10 9 9 9 10 10 11 12 13 15 18 21 22 21 19 19 19 18 18 18 19 19 18 17 16 16 16 16 16 16 15 15 14 14 14 15 17 18 18 20 20 21 21 22 22 22
1 0 1 4 2 1 1 1 1 1 1 3 2 2 3 3 5 3 2 1 2 4 4 3 5 4 1 2 2 2 2 5 6 5 5 6 9 9 10 10 9 9 10 10 10 10 11 11 11 13 17 20 22 22 20 19 19 18 19 19 19 20 19 19 18 17 17 17 17 18 18 18 18 17 17 17 17 17 17 17 19 20 21 22 23 23
1 1 1 3 4 3 4 3 2 2 0 2 2 3 4 6 7 3 1 2 3 2 5 5 6 4 3 3 5 4 3 8 11 9 5 6 9 9 9 9 9 9 9 10 10 9 10 11 12 15 19 22 22 22 21 20 19 19 19 19 20 20 20 20 19 19 19 19 19 19 19 20 20 20 19 19 18 17 17 16 17 18 19 20 22 23
0 1 3 4 4 6 7 4 1 1 4 4 4 6 7 7 7 4 1 3 3 2 5 10 9 11 14 11 8 8 7 8 11 11 9 8 8 8 8 9 9 9 9 9 9 8 9 11 12 15 20 22 22 22 21 20 21 20 19 19 19 20 21 21 20 20 20 21 21 21 21 21 21 21 21 21 20 19 18 17 17 18 18 19 20 21
1 2 3 4 8 9 8 6 1 2 9 11 7 6 9 9 8 7 7 5 4 2 6 7 6 10 15 15 13 14 13 10 10 12 11 10 10 9 8 9 11 11 9 8 8 8 9 10 11 14 19 22 23 22 21 20 20 20 20 20 19 19 20 21 22 22 21 21 22 22 23 23 22 22 22 22 21 21 20 19 19 19 19 19 20 21
1 3 1 3 8 11 10 10 7 6 10 12 10 9 9 11 12 13 14 9 7 8 10 4 3 10 15 16 18 17 14 12 13 14 12 10 11 10 9 10 11 10 10 10 9 9 9 9 11 13 16 21 23 23 23 21 20 20 21 21 20 20 20 20 22 23 23 23 23 22 22 23 24 24 23 23 23 23 22 22 21 21 21 21 21 21
2 2 0 1 7 11 10 9 8 8 10 10 11 12 12 12 15 16 16 12 11 16 18 14 15 18 17 18 19 16 14 12 12 13 12 11 10 9 9 9 10 10 10 10 10 10 9 10 13 14 16 21 24 23 23 23 22 22 22 23 23 22 22 22 22 23 24 26 26 24 23 23 23 24 25 25 25 24 24 24 23 23 23 22 23 23
2 1 1 0 6 6 2 2 4 8 10 11 12 11 11 12 13 15 15 12 12 15 18 17 16 16 16 17 14 12 11 10 10 11 11 10 9 8 9 10 10 10 11 11 11 10 10 11 13 13 15 21 25 24 23 24 24 24 24 24 24 24 24 24 24 25 25 26 27 27 26 25 24 24 25 26 27 26 25 25 25 25 25 24 24 24
2 1 1 1 5 3 3 2 5 8 10 11 13 11 11 12 9 10 11 10 11 12 10 7 8 11 11 8 7 9 8 8 11 12 10 10 9 8 9 10 11 11 11 11 11 10 10 11 12 13 17 23 25 25 25 25 25 26 27 27 27 26 25 25 26 27 27 27 28 28 29 29 27 26 26 27 28 28 28 27 27 27 27 27 26 26
2 2 1 1 4 3 1 4 8 10 7 5 4 4 10 11 8 7 7 10 14 11 6 5 7 9 6 4 6 10 9 8 10 9 7 9 10 10 10 11 12 12 12 11 10 10 11 11 14 17 22 26 27 27 27 26 25 27 29 30 29 28 27 27 28 29 29 30 29 29 30 31 31 30 29 29 29 30 30 30 29 29 29 29 28 28
3 2 2 1 3 3 4 7 7 6 4 0 1 3 7 8 10 10 9 10 14 12 8 8 9 9 9 8 9 11 12 10 7 6 7 8 8 10 12 12 11 11 12 11 11 11 12 15 20 25 27 28 28 28 28 26 27 29 31 31 31 29 28 28 28 29 30 31 31 30 30 31 33 34 33 32 31 31 31 32 32 31 30 29 29 30
4 2 2 1 2 3 4 6 5 2 1 1 2 3 2 3 8 12 14 12 13 15 15 14 14 14 14 12 10 12 15 10 3 5 10 11 9 10 12 13 12 11 10 10 10 11 15 20 24 27 28 29 28 27 27 28 30 32 32 31 31 30 29 28 29 30 31 31 32 31 30 30 32 34 35 35 33 32 33 33 32 32 32 31 30 31
4 3 2 1 2 3 2 1 2 5 6 2 1 2 1 2 4 6 11 10 11 15 16 15 16 16 14 13 12 12 13 8 3 6 12 13 11 11 11 11 12 10 10 11 12 15 20 25 26 27 29 30 29 27 28 31 33 33 32 32 31 31 30 29 29 31 32 32 33 33 32 31 31 33 35 35 34 34 34 34 33 33 32 31 31 31
2 2 1 2 2 2 2 2 4 8 9 3 2 2 3 3 3 1 4 8 8 11 13 13 15 15 13 13 12 10 9 9 6 6 10 11 10 11 12 13 13 13 14 18 21 23 27 30 31 31 32 30 30 30 31 33 34 32 32 32 31 32 31 30 30 31 32 33 34 34 34 32 31 31 33 34 34 34 35 35 34 33 32 31 31 31
1 1 1 2 2 1 2 3 3 5 4 1 3 3 2 1 2 4 2 9 8 7 13 14 14 13 11 11 9 4 4 9 9 3 4 7 7 8 10 14 17 20 22 25 28 30 33 35 35 34 32 28 29 32 33 33 33 31 31 31 32 32 31 30 30 32 33 34 35 35 35 33 31 30 31 31 33 34 35 35 35 34 31 30 29 30
3 2 1 1 1 1 1 2 2 4 4 2 4 4 3 3 4 3 2 5 4 4 10 13 13 11 9 9 6 1 1 8 11 6 2 2 4 6 7 11 18 24 26 27 28 30 34 37 35 34 32 29 30 33 33 32 31 29 30 32 33 32 31 31 31 33 34 35 35 35 35 34 32 30 30 30 31 33 34 35 35 33 31 29 28 29
2 1 1 2 2 2 3 2 3 5 6 3 5 5 4 4 4 1 4 3 2 4 7 10 10 9 8 7 5 3 4 8 11 10 8 7 8 10 10 12 18 22 24 27 28 28 31 34 33 33 33 32 33 34 32 31 30 29 30 32 33 32 32 33 33 33 34 34 35 36 35 34 33 31 30 30 31 32 33 33 34 32 29 28 28 29
0 1 1 2 3 3 5 3 3 6 6 5 6 6 6 5 3 2 4 2 2 4 5 7 8 8 6 5 5 5 7 10 12 13 10 8 11 14 16 19 22 24 26 29 30 28 29 32 33 33 34 35 34 33 32 30 28 30 31 32 33 34 34 34 34 34 33 33 34 35 34 33 33 32 31 30 30 31 31 32 32 31 29 29 28 28
3 2 1 1 2 2 3 3 3 6 6 4 6 5 4 4 3 3 2 1 1 3 4 6 7 6 6 7 8 8 10 12 13 13 11 10 12 14 17 21 22 24 25 27 27 26 26 29 32 34 36 36 33 31 30 28 27 30 31 32 34 36 36 34 34 33 33 33 34 34 33 31 31 32 31 30 29 29 30 31 31 30 29 28 28 28
5 4 2 4 3 1 0 1 3 5 2 8 11 6 2 5 4 1 1 2 2 3 4 5 7 6 6 8 10 11 12 12 12 12 12 12 11 14 19 20 20 22 24 25 26 25 23 25 29 33 36 36 33 31 30 27 27 29 30 32 36 37 35 33 33 32 33 34 34 33 32 30 30 30 30 29 28 28 29 29 29 29 28 28 28 28
6 5 2 3 5 3 2 5 4 2 3 10 9 5 7 10 6 1 2 5 6 6 5 6 7 7 7 7 10 11 11 11 12 12 12 12 11 13 17 19 20 22 23 25 28 27 23 23 27 31 35 36 33 32 30 27 27 27 29 33 37 35 33 33 33 32 33 34 33 33 32 30 30 30 30 29 28 27 27 28 28 28 28 28 27 27
9 8 2 2 5 5 5 7 4 1 3 9 8 6 7 11 8 4 4 6 7 7 7 6 9 10 8 8 10 11 10 10 11 12 11 11 12 12 15 19 23 26 25 26 28 27 24 25 27 29 33 35 35 33 31 29 27 26 29 34 36 33 32 32 31 31 32 34 33 33 32 31 30 30 30 28 27 26 27 28 27 27 28 28 27 27
6 6 1 0 2 4 9 10 8 8 8 10 10 10 10 10 8 6 6 7 8 8 7 7 9 10 9 9 10 11 11 11 11 12 12 11 12 13 17 20 24 28 29 28 28 26 24 24 26 26 29 33 35 34 31 29 27 27 30 34 34 32 31 30 30 31 32 34 35 34 32 31 31 31 29 28 27 27 28 28 27 27 28 28 27 27
4 5 4 3 2 2 7 7 8 11 13 10 10 11 11 11 10 8 7 9 10 9 8 8 10 10 9 9 10 11 13 13 12 12 12 10 11 13 15 17 21 26 30 30 28 26 23 23 24 24 25 30 35 35 31 30 30 30 31 33 32 30 29 29 30 31 32 33 34 34 32 30 30 30 29 28 27 27 27 27 27 27 29 30 29 28
2 4 5 6 6 6 10 9 6 8 12 10 9 9 9 11 11 9 10 11 11 11 10 11 12 9 7 9 9 10 12 12 11 12 11 9 10 11 13 17 22 27 29 30 29 26 23 22 24 24 25 30 35 35 32 31 33 33 32 32 32 29 28 28 29 30 31 33 33 33 32 31 30 30 29 29 29 28 28 28 28 28 31 33 32 31
3 4 5 5 5 7 13 14 9 8 12 14 13 12 11 11 11 11 12 12 11 10 9 11 14 12 10 11 9 10 13 12 10 12 12 10 10 11 14 20 25 27 27 29 29 28 25 24 25 24 27 32 34 32 31 32 35 34 32 32 32 28 27 28 28 29 31 32 32 32 32 31 31 30 29 30 30 29 29 29 29 30 32 33 32 32
4 6 5 3 3 6 11 10 5 4 10 12 10 9 9 9 8 9 10 10 11 10 8 9 13 15 16 16 14 10 11 12 11 13 13 11 12 14 18 22 25 27 27 28 28 28 27 27 27 26 29 33 33 30 30 33 35 34 32 31 30 27 26 27 27 28 30 30 31 32 32 31 32 31 30 29 29 29 29 29 27 28 30 31 30 29
10 10 7 7 7 9 14 11 5 5 10 10 7 7 7 6 7 10 13 13 12 13 11 9 11 13 13 16 18 14 11 11 14 14 13 13 17 22 25 26 26 27 28 28 27 27 28 28 28 28 30 32 30 28 30 33 34 34 33 30 28 27 26 26 26 28 30 31 32 32 31 30 31 31 30 29 29 28 28 28 28 28 28 28 27 28
Wind_Direction
1 64 55 30 15 8 8 19 60 82 87 105 116 85 309 296 71 58 313 17 339 313 47 7 318 292 308 329 339 334 328 320 338 347 341 344 342 335 335 329 331 337 336 333 336 343 347 350 354 354 356 358 1 3 5 11 16 20 22 23 23 25 26 27 25 21 22 21 20 24 26 27 31 37 41 44 48 51 55 63 69 72 71 73 80 85
36 63 49 15 8 5 19 40 88 89 87 100 113 154 261 297 346 325 298 345 335 303 75 7 316 267 288 310 314 321 311 330 354 339 332 337 330 331 330 326 331 333 330 334 343 347 343 345 350 352 356 356 356 358 2 8 13 19 24 24 24 26 28 30 28 23 23 24 22 23 26 28 31 36 40 42 47 51 55 60 65 71 73 76 81 83
60 58 29 359 35 76 60 73 103 83 63 48 76 206 233 357 310 277 233 349 342 314 353 353 308 254 259 280 282 301 296 315 332 304 303 310 311 325 330 327 327 324 328 336 343 345 340 340 344 348 351 351 352 354 358 3 9 16 20 23 26 26 28 30 32 29 26 28 31 31 33 36 39 40 42 45 50 56 58 60 63 65 69 74 79 81
59 43 18 6 212 224 49 47 64 141 79 39 36 287 317 5 317 239 118 352 346 357 333 323 278 247 236 234 242 248 267 282 290 282 272 264 280 306 311 304 302 313 327 329 332 339 339 339 340 342 341 340 348 350 352 357 4 11 15 21 26 25 26 29 33 36 33 32 36 42 44 46 48 49 51 54 58 62 62 62 65 66 69 72 76 79
69 22 9 175 208 241 356 38 33 304 106 85 15 331 330 339 307 276 319 326 311 169 325 310 254 224 206 210 222 199 231 252 264 288 264 237 252 272 284 285 280 298 315 318 322 329 333 334 333 338 340 335 340 344 346 350 356 5 9 15 24 25 24 26 32 36 37 36 37 42 45 47 48 46 48 50 52 56 58 60 63 66 70 74 76 80
63 17 297 197 91 4 330 38 24 318 279 151 220 277 293 311 287 275 300 309 260 173 25 337 287 195 169 206 227 197 244 248 229 299 289 311 297 283 305 326 328 317 313 310 310 316 323 329 330 337 346 338 332 334 339 345 349 358 5 10 19 24 23 23 28 35 36 36 36 38 37 37 37 34 37 41 42 47 53 58 62 64 69 75 78 82
57 29 28 51 72 52 42 69 55 312 310 189 134 207 269 292 269 273 309 295 291 320 7 344 322 328 175 205 209 199 266 261 252 278 284 331 330 329 337 341 342 334 330 324 315 319 323 329 335 338 344 340 329 322 330 341 345 350 358 6 14 20 22 21 24 31 35 35 36 39 37 33 31 29 33 42 47 52 56 61 65 67 69 72 76 79
22 359 29 31 53 53 38 30 27 329 310 7 81 269 267 276 246 246 330 297 357 316 271 10 340 288 250 191 173 217 282 266 258 262 254 330 339 342 339 334 336 333 332 325 318 324 329 331 334 334 338 341 333 317 319 335 341 345 351 360 10 15 19 21 21 25 31 33 34 38 41 37 33 31 34 43 52 57 61 64 66 68 70 71 73 75
1 6 17 360 359 29 16 335 329 299 313 38 63 297 277 6 123 144 290 159 49 286 232 54 344 279 275 132 151 237 281 274 284 292 273 322 341 336 331 327 330 332 328 320 315 317 322 325 326 328 339 350 348 327 313 322 331 338 344 351 2 8 13 20 23 23 26 32 35 36 39 40 38 37 36 40 47 53 59 63 65 68 70 71 73 74
47 24 351 338 9 4 327 323 308 270 336 45 115 120 125 121 106 142 297 76 133 267 213 27 346 321 309 161 169 212 265 283 308 312 278 290 314 313 317 320 326 332 330 327 323 316 317 323 327 336 349 3 3 341 320 313 316 327 335 340 347 352 2 15 23 24 24 29 35 36 37 39 43 46 45 41 44 50 56 60 64 67 69 71 73 74
108 100 254 356 22 317 298 311 287 241 339 121 186 216 176 176 154 177 300 358 243 250 123 60 9 350 316 182 169 216 250 297 302 295 271 252 274 304 321 327 331 333 330 327 323 322 324 327 334 342 348 2 11 1 338 320 312 314 317 323 331 333 341 357 15 22 22 25 31 36 37 37 38 46 52 50 49 52 54 57 60 63 66 69 71 74
144 137 236 38 45 300 285 235 185 197 209 205 218 243 216 192 193 197 181 170 263 301 104 83 12 321 263 225 140 208 185 237 268 280 283 269 276 308 326 331 334 330 324 319 318 323 327 329 334 338 342 355 10 12 359 339 324 316 309 308 313 318 322 331 348 7 16 21 23 27 32 35 33 34 41 48 58 63 60 59 59 59 62 64 66 70
139 88 343 269 161 342 317 262 171 180 223 290 274 271 281 256 225 252 196 210 272 350 105 100 1 275 245 260 141 189 218 238 253 265 279 285 285 295 310 323 329 326 318 314 314 317 318 322 326 328 334 342 353 2 3 357 345 331 320 308 302 302 302 308 319 326 342 4 14 19 21 25 30 28 27 28 36 51 60 66 69 64 62 66 68 70
129 130 350 331 134 360 348 355 17 321 343 355 351 324 337 11 5 340 334 296 288 356 113 121 342 280 259 265 167 177 210 272 282 273 276 285 286 291 301 308 310 310 308 304 304 305 306 313 318 320 325 329 334 341 347 353 352 344 338 322 310 304 290 288 297 301 301 306 318 350 2 360 11 17 18 17 14 21 32 41 56 63 65 74 78 79
6 79 13 17 359 345 8 23 350 314 333 357 318 311 2 40 354 331 327 312 309 319 307 151 254 275 302 30 96 71 13 324 290 276 277 277 276 285 293 293 293 297 302 306 302 302 304 309 314 318 322 325 324 325 328 332 338 339 339 335 326 317 297 279 278 282 286 286 282 281 281 289 306 317 328 329 334 355 7 9 16 26 38 56 71 76
322 19 29 28 327 337 13 20 317 288 298 44 229 283 20 32 331 334 15 350 330 310 287 217 240 263 284 47 57 331 306 293 278 259 262 269 269 278 284 284 285 291 305 318 315 309 311 312 313 317 322 324 320 316 316 314 314 320 325 329 329 328 315 290 277 272 271 273 275 275 270 267 267 266 272 275 274 283 294 311 325 323 330 336 336 4
318 149 72 34 248 7 6 340 336 331 317 298 314 13 58 357 302 103 70 95 181 271 279 278 282 282 287 196 91 313 284 277 265 254 254 263 272 278 280 284 287 297 311 316 311 303 305 309 312 318 321 322 320 314 310 306 301 299 303 311 317 322 322 309 292 277 266 264 265 267 266 265 265 264 262 262 260 258 260 262 264 271 279 286 291 298
315 269 95 357 239 96 7 295 345 349 310 310 17 79 112 216 296 226 302 286 259 281 290 320 295 300 313 339 126 187 253 264 246 246 256 263 272 273 277 287 293 300 308 310 308 305 303 304 310 317 320 320 319 313 306 303 298 289 287 293 300 305 309 311 307 295 278 266 262 261 261 262 262 262 261 259 259 257 255 255 255 255 258 260 263 270
292 282 107 154 290 43 111 244 222 86 25 23 77 115 182 298 6 308 314 334 327 306 293 293 299 281 245 203 137 174 201 247 238 234 263 272 276 278 281 291 297 303 307 308 309 308 307 306 308 314 317 317 317 313 307 302 298 292 284 281 286 291 295 296 299 301 294 280 269 262 258 258 258 258 258 258 257 256 255 254 254 253 251 250 251 254
261 306 62 146 252 335 333 242 305 71 55 49 120 140 351 349 338 348 7 314 294 303 307 317 326 279 210 189 192 193 197 208 225 252 276 282 282 281 283 288 296 304 305 304 303 301 302 302 306 311 314 314 313 311 308 304 299 294 288 282 280 281 285 287 287 292 295 289 282 272 262 258 257 257 256 256 256 256 256 254 253 253 252 252 251 250
240 303 323 121 170 257 354 50 352 357 36 337 201 64 64 95 317 299 109 356 310 301 303 311 301 294 133 161 212 207 199 203 232 280 284 285 285 283 282 283 290 298 298 298 297 296 297 298 302 309 313 313 309 307 307 307 301 294 290 287 282 278 280 283 281 282 285 286 286 282 275 267 261 258 256 256 255 255 256 255 253 252 252 252 251 250
274 208 295 307 247 208 85 66 355 329 331 311 307 26 34 3 313 295 358 45 359 297 272 309 294 293 352 45 266 293 5 311 313 301 285 285 288 289 286 281 284 290 291 293 293 293 295 295 298 305 310 311 308 304 303 304 303 298 293 290 287 282 281 283 283 280 278 279 281 283 282 277 269 263 259 257 256 256 257 257 255 254 253 251 251 251
301 256 275 286 311 70 82 84 45 312 246 255 279 304 83 166 236 300 330 38 152 246 45 57 279 278 13 63 291 309 314 297 301 282 275 285 289 289 289 286 286 285 284 287 287 287 289 291 295 302 306 308 309 306 301 299 299 298 293 289 287 286 286 287 286 282 277 275 276 278 279 278 276 272 267 263 262 261 261 260 258 256 255 254 253 253
222 321 285 276 248 104 107 121 114 13 246 219 228 198 195 187 53 347 355 14 243 198 163 181 252 257 5 61 285 286 287 287 278 249 262 282 287 288 288 289 289 290 291 292 289 287 287 289 292 296 300 305 308 308 305 300 296 294 292 289 285 284 285 286 285 283 280 277 276 276 275 276 276 276 274 272 271 271 269 266 263 259 257 256 255 255
225 67 314 305 323 98 134 146 167 331 251 245 238 170 182 118 94 96 110 101 262 214 177 231 262 252 127 121 224 245 280 294 284 249 242 270 285 292 293 294 296 296 297 297 296 296 296 294 293 293 297 302 304 306 307 305 300 294 291 289 286 283 282 283 283 281 280 278 277 275 274 274 274 273 274 275 276 278 277 273 269 264 261 258 257 256
272 333 258 309 336 323 321 338 325 320 242 217 195 175 187 162 153 169 143 179 245 201 170 219 256 280 271 217 223 239 261 288 291 286 269 264 275 285 290 296 300 300 298 298 298 298 298 295 291 293 297 300 301 303 304 306 306 301 294 289 286 283 280 280 282 281 278 276 276 275 274 273 272 272 273 274 275 276 277 275 273 270 266 262 259 258
169 264 229 242 264 274 298 322 59 309 279 253 208 187 188 189 192 190 162 215 209 161 211 234 249 280 285 279 281 288 283 281 289 297 298 290 285 285 287 293 296 293 291 290 289 287 288 288 283 287 295 298 299 302 303 304 306 306 303 296 290 285 281 277 278 280 280 276 273 273 274 274 274 274 273 273 273 273 272 271 271 271 270 267 263 261
189 255 215 217 246 258 282 295 235 227 265 264 255 214 187 187 191 192 211 211 142 155 260 244 221 254 275 287 298 301 300 298 298 299 298 296 295 292 291 293 291 288 286 284 283 279 276 278 277 280 289 295 298 300 302 304 304 305 306 303 298 292 286 280 276 275 277 277 274 273 275 276 276 275 274 273 272 271 270 269 268 267 269 268 266 264
227 273 195 181 256 264 267 272 262 249 256 258 256 245 214 192 188 202 222 209 169 223 256 262 244 262 275 287 290 291 295 301 302 299 295 289 287 284 284 286 284 283 285 286 286 281 274 273 273 273 281 290 295 298 299 301 302 302 303 303 302 298 293 289 282 275 272 273 275 277 279 279 276 274 274 273 272 271 271 270 268 266 265 265 266 267
222 252 257 202 274 272 258 254 250 247 258 260 244 234 227 214 203 212 229 221 209 240 258 269 279 282 280 278 277 282 290 294 292 290 289 282 277 276 275 276 275 276 281 280 279 278 272 268 269 269 275 284 290 294 296 297 298 300 300 300 300 298 297 296 292 285 276 272 272 276 280 280 277 274 272 272 272 273 272 272 270 268 266 264 264 265
262 287 68 54 288 281 229 186 219 233 251 265 259 235 217 219 219 223 235 231 226 245 259 267 276 280 273 267 267 273 281 286 282 281 282 280 276 276 275 274 274 276 279 278 276 275 271 269 271 269 272 281 287 290 293 296 298 299 298 298 298 298 298 298 295 292 287 279 275 275 276 278 279 277 273 271 271 271 272 273 272 270 268 266 264 264
222 254 94 32 300 282 111 79 284 271 261 261 270 254 209 202 215 220 222 214 212 227 245 259 264 261 260 267 276 267 257 260 271 274 279 283 280 273 270 272 276 278 279 279 277 275 274 273 272 270 274 283 288 289 292 296 298 299 298 299 300 300 299 297 294 292 291 289 284 278 276 276 278 278 277 275 273 271 271 271 270 270 269 268 267 265
198 215 147 53 289 269 43 350 312 303 290 255 267 239 185 187 212 231 228 214 208 212 218 223 236 250 268 296 288 276 262 252 260 266 270 278 282 280 274 270 272 274 276 277 276 274 273 271 272 275 280 284 287 290 293 295 295 297 300 301 300 299 296 294 293 292 290 290 289 284 280 278 277 278 278 278 276 274 271 268 268 268 269 269 270 267
189 200 156 156 260 285 339 328 306 299 305 38 120 157 160 178 206 223 238 222 203 204 224 246 259 273 281 275 268 273 272 264 264 274 271 265 270 281 282 276 272 270 269 270 270 268 266 270 277 281 283 286 289 292 295 295 294 297 301 301 300 298 296 294 293 292 290 289 288 287 284 281 278 277 278 280 279 276 271 268 267 267 268 269 268 267
168 175 138 150 250 285 329 327 310 285 211 129 171 192 165 178 204 229 256 247 208 209 231 251 263 265 263 263 264 269 270 268 283 291 278 267 255 258 268 273 273 269 264 264 264 263 266 273 278 281 284 288 291 292 292 294 296 298 299 299 298 297 296 295 293 291 290 289 288 286 285 282 279 278 279 280 279 276 273 269 268 268 268 267 266 266
163 160 146 148 234 272 319 349 308 306 313 326 148 168 133 146 187 236 271 258 209 205 220 236 250 256 261 265 264 267 276 287 300 263 264 264 253 244 247 254 258 257 256 260 262 267 276 281 282 283 285 289 292 291 291 295 298 298 297 297 297 297 296 294 291 291 291 290 289 287 285 283 280 279 279 279 278 276 274 271 270 270 269 267 266 266
154 147 187 213 213 252 285 227 252 300 315 338 132 163 163 168 161 136 298 277 234 202 202 221 242 251 259 262 260 271 297 305 287 237 235 244 244 240 239 243 249 255 261 267 272 277 283 287 289 290 291 293 294 294 295 298 300 298 296 296 296 296 296 293 289 290 292 292 291 289 286 284 281 279 279 279 277 275 275 274 272 271 270 267 265 265
12 343 246 243 232 205 280 279 282 298 301 145 169 217 217 198 128 101 332 289 270 205 188 206 232 242 249 260 263 274 315 302 295 267 204 226 238 241 245 250 257 262 266 272 279 285 289 291 292 293 294 295 294 297 300 301 300 297 294 295 295 294 292 289 288 290 292 293 294 292 289 286 282 279 278 277 276 276 276 276 274 273 271 267 264 265
30 7 11 255 259 187 220 267 259 262 268 186 174 193 182 166 149 125 293 282 265 193 187 201 222 234 242 259 267 258 316 293 295 306 319 257 254 250 253 261 267 271 274 278 281 285 290 294 296 295 295 293 293 298 301 300 298 294 290 290 291 289 286 284 286 290 292 293 295 294 291 287 284 281 278 277 276 277 278 278 277 275 273 269 265 265
45 12 182 219 232 199 202 220 231 254 259 213 177 171 148 150 161 233 302 289 187 188 190 195 217 233 235 247 261 268 269 276 287 301 320 324 301 281 268 266 270 275 280 285 287 288 290 294 295 293 293 292 294 298 299 295 292 288 284 286 287 283 281 284 289 292 293 293 293 293 291 289 286 283 280 278 278 279 280 280 279 276 273 270 266 265
146 220 193 229 243 214 215 235 270 270 255 205 175 159 143 146 171 237 279 285 170 193 186 185 213 232 231 235 246 250 253 264 280 296 310 312 299 290 282 278 278 279 281 284 289 292 292 293 293 291 291 292 295 297 296 292 287 282 283 285 283 280 284 289 293 293 292 292 292 291 291 290 288 286 284 282 281 280 280 279 277 275 273 270 266 264
178 175 163 198 221 209 220 249 280 278 264 168 135 131 146 179 215 224 241 269 162 188 192 201 220 229 231 238 244 250 260 269 278 289 296 292 289 288 287 286 286 286 286 287 289 290 289 290 291 291 291 294 295 295 293 289 282 280 282 282 280 283 290 294 293 292 291 291 290 289 289 289 288 286 285 284 282 279 278 278 277 275 272 269 266 263
165 169 187 188 180 155 189 238 259 276 237 133 123 113 187 223 228 190 205 260 239 229 232 235 239 236 231 240 248 253 262 271 275 279 281 280 279 280 282 285 285 285 287 289 289 289 286 284 285 287 291 294 295 292 290 285 277 277 278 277 281 289 295 294 293 292 290 290 288 287 287 287 286 285 284 282 280 276 275 277 276 274 271 267 263 261
176 184 202 197 183 165 181 206 221 268 175 165 163 168 206 222 238 298 297 278 275 272 268 266 265 259 244 245 256 261 265 270 271 274 275 275 274 274 278 282 282 282 284 286 288 290 287 280 281 285 290 293 294 292 290 284 277 275 274 278 287 294 295 294 294 292 289 289 287 287 287 286 285 284 282 280 278 274 272 274 273 271 269 264 259 257
197 189 181 212 195 195 225 230 236 328 171 193 219 248 234 235 246 252 256 270 273 268 265 266 268 267 259 256 264 268 267 264 266 270 272 273 273 272 275 280 282 284 285 286 287 289 287 282 281 284 288 293 295 294 293 289 282 275 276 285 294 296 293 293 293 289 288 288 287 287 287 286 284 283 280 278 276 272 270 270 269 266 264 261 256 253
215 193 165 196 187 250 268 252 243 256 239 217 232 253 257 259 261 254 255 260 257 257 259 256 257 262 263 264 267 269 269 269 271 272 271 271 271 270 271 276 280 283 286 287 287 289 288 286 284 283 285 291 295 296 296 294 288 281 283 292 297 295 293 292 290 288 288 289 288 288 288 286 284 284 281 279 276 272 270 268 264 261 260 258 255 251
234 196 197 209 158 265 264 233 212 241 249 236 233 243 248 252 251 247 251 254 256 260 259 256 260 263 262 258 256 260 267 271 272 272 271 270 268 268 269 271 275 280 284 286 288 291 290 285 283 283 284 288 293 297 298 297 294 291 292 296 297 296 294 293 289 288 288 288 289 289 288 285 284 284 283 280 277 273 270 267 262 256 254 253 251 248
193 171 195 218 211 226 257 258 239 253 265 260 246 242 245 248 246 242 242 245 251 259 260 260 264 265 261 257 253 256 264 265 263 267 269 263 261 265 268 270 274 279 283 286 289 291 288 281 279 280 282 283 289 295 296 295 296 297 297 298 299 298 296 292 289 287 287 287 287 287 286 284 283 281 280 279 277 272 266 264 260 253 253 254 252 248
113 164 184 206 214 242 269 271 259 263 273 265 250 245 248 251 253 253 253 253 254 256 257 260 261 258 254 256 254 257 264 263 256 261 265 263 263 263 265 271 276 279 282 285 288 288 286 281 279 279 280 282 287 291 292 292 295 298 299 299 301 299 295 291 289 286 285 285 284 283 284 284 281 279 277 276 277 274 268 266 262 257 258 262 259 254
175 215 192 179 208 240 256 249 203 227 266 264 255 252 248 246 250 253 254 255 256 255 251 256 262 262 259 258 254 250 257 261 257 258 261 263 264 266 269 274 278 280 282 284 286 286 284 282 280 279 280 283 286 289 290 291 294 297 298 299 300 299 294 291 288 284 283 283 282 282 283 282 280 278 276 273 272 272 272 272 268 262 261 265 265 262
213 223 197 194 212 235 250 244 184 205 255 264 271 269 257 245 245 251 258 262 264 267 266 262 267 270 269 266 262 253 247 254 258 258 259 260 264 270 275 277 278 280 282 283 284 285 284 284 284 282 281 284 288 290 290 290 293 296 298 299 300 299 295 291 286 282 282 283 282 282 283 281 279 278 276 272 269 268 269 272 272 268 264 263 264 263